BON52X FSIA-FACT

Flight info

Callsign BON52X
Flight time N/A
Altitude 34000
Route IMPOX1B IMPOX DCT OKLAB/N0463F350 UM307 NESAM/N0462F340 UM307 GALBA/N0462F360 UM307 AVITO UW19 VL UG467 TEVAP UZ36 IXEKI/N0459F380 UZ36 BLV UW95 PVV UZ40 ESRUK UQ51 GETEN GETEN1C
Aircraft A320/M-SDE3FGHIRWY/LB1

Departure

Time N/A
Airport Seychelles International Airport (FSIA)

Arrival

Time 2026-05-04 19:39
Airport Cape Town International Airport (FACT)
Time Latitude Longitude Altitude Speed Heading
2026-05-04 14:42 -11.82920 46.63710 34971 ft 467 kts 225°
2026-05-04 14:43 -11.87460 46.58958 34971 ft 467 kts 226°
2026-05-04 14:43 -11.91977 46.54228 34974 ft 467 kts 226°
2026-05-04 14:44 -11.96518 46.49473 34980 ft 467 kts 226°
2026-05-04 14:44 -12.01054 46.44718 34984 ft 466 kts 226°
2026-05-04 14:45 -12.05593 46.39966 34987 ft 466 kts 226°
2026-05-04 14:45 -12.10114 46.35228 34986 ft 465 kts 226°
2026-05-04 14:46 -12.14592 46.30508 34985 ft 465 kts 226°
2026-05-04 14:46 -12.19108 46.25759 34986 ft 465 kts 226°
2026-05-04 14:47 -12.23622 46.21020 34984 ft 465 kts 226°
2026-05-04 14:47 -12.28136 46.16278 34983 ft 465 kts 226°
2026-05-04 14:48 -12.32219 46.11180 34980 ft 464 kts 239°
2026-05-04 14:48 -12.35520 46.05563 34978 ft 464 kts 239°
2026-05-04 14:49 -12.38857 45.99905 34978 ft 464 kts 239°
2026-05-04 14:49 -12.42200 45.94251 34980 ft 464 kts 239°
2026-05-04 14:50 -12.45542 45.88588 34982 ft 464 kts 239°
2026-05-04 14:50 -12.48882 45.82918 34983 ft 464 kts 239°
2026-05-04 14:51 -12.52196 45.77295 34982 ft 464 kts 239°
2026-05-04 14:51 -12.55533 45.71618 34983 ft 464 kts 239°
2026-05-04 14:52 -12.58843 45.65993 34982 ft 464 kts 239°
2026-05-04 14:52 -12.62177 45.60326 34982 ft 463 kts 239°
2026-05-04 14:53 -12.65507 45.54667 34983 ft 463 kts 239°
2026-05-04 14:53 -12.68809 45.49038 34984 ft 463 kts 239°
2026-05-04 14:54 -12.72134 45.43374 34986 ft 463 kts 239°
2026-05-04 14:54 -12.75457 45.37721 34986 ft 463 kts 239°
2026-05-04 14:55 -12.78751 45.32097 34998 ft 463 kts 239°
2026-05-04 14:55 -12.82210 45.26525 34995 ft 462 kts 234°
2026-05-04 14:56 -12.86012 45.21197 35158 ft 462 kts 234°
2026-05-04 14:56 -12.87899 45.18538 35486 ft 460 kts 234°
2026-05-04 14:56 -12.89759 45.15915 35788 ft 459 kts 234°
2026-05-04 14:57 -12.91642 45.13259 35950 ft 460 kts 234°
2026-05-04 14:57 -12.93519 45.10610 35973 ft 459 kts 234°
2026-05-04 14:57 -12.97271 45.05312 35971 ft 458 kts 234°
2026-05-04 14:58 -13.01015 45.00022 35971 ft 458 kts 234°
2026-05-04 14:58 -13.04761 44.94747 35971 ft 457 kts 234°
2026-05-04 14:59 -13.08487 44.89506 35972 ft 457 kts 234°
2026-05-04 15:00 -13.14101 44.81579 35981 ft 458 kts 234°
2026-05-04 15:00 -13.17838 44.76290 35980 ft 458 kts 234°
2026-05-04 15:01 -13.23437 44.68382 35983 ft 457 kts 234°
2026-05-04 15:01 -13.27186 44.63079 35988 ft 457 kts 235°
2026-05-04 15:02 -13.30914 44.57798 35990 ft 457 kts 234°
2026-05-04 15:02 -13.34628 44.52531 35992 ft 457 kts 235°
2026-05-04 15:03 -13.38364 44.47233 35985 ft 457 kts 235°
2026-05-04 15:03 -13.42107 44.41956 35985 ft 456 kts 234°
2026-05-04 15:04 -13.45836 44.36715 35988 ft 456 kts 235°
2026-05-04 15:04 -13.49581 44.31445 35992 ft 456 kts 235°
2026-05-04 15:05 -13.53318 44.26171 35997 ft 456 kts 235°
2026-05-04 15:05 -13.57022 44.20931 35995 ft 455 kts 235°
2026-05-04 15:06 -13.60762 44.15650 35999 ft 455 kts 235°
2026-05-04 15:07 -13.66372 44.07762 35993 ft 455 kts 235°
2026-05-04 15:07 -13.70098 44.02501 35999 ft 455 kts 235°
2026-05-04 15:08 -13.73793 43.97262 36001 ft 455 kts 235°
2026-05-04 15:08 -13.77516 43.91994 35995 ft 454 kts 235°
2026-05-04 15:09 -13.81234 43.86725 35999 ft 454 kts 235°
2026-05-04 15:09 -13.84942 43.81448 35993 ft 454 kts 235°
2026-05-04 15:10 -13.90506 43.73538 35997 ft 454 kts 235°
2026-05-04 15:11 -13.96064 43.65654 35998 ft 454 kts 235°
2026-05-04 15:11 -13.99784 43.60381 35997 ft 455 kts 235°
2026-05-04 15:12 -14.03493 43.55106 35998 ft 454 kts 235°
2026-05-04 15:12 -14.07178 43.49852 35994 ft 454 kts 235°
2026-05-04 15:13 -14.10882 43.44571 36000 ft 454 kts 235°
2026-05-04 15:13 -14.14591 43.39286 35995 ft 454 kts 235°
2026-05-04 15:14 -14.18272 43.34035 35997 ft 454 kts 235°
2026-05-04 15:14 -14.21976 43.28753 36003 ft 454 kts 235°
2026-05-04 15:15 -14.25678 43.23467 36001 ft 454 kts 235°
2026-05-04 15:15 -14.29359 43.18208 36004 ft 454 kts 235°
2026-05-04 15:16 -14.34919 43.10272 36010 ft 454 kts 235°
2026-05-04 15:17 -14.40442 43.02363 36016 ft 454 kts 235°
2026-05-04 15:17 -14.45978 42.94420 36019 ft 454 kts 235°
2026-05-04 15:18 -14.49664 42.89132 36019 ft 454 kts 235°
2026-05-04 15:19 -14.55189 42.81182 36026 ft 454 kts 236°
2026-05-04 15:19 -14.60574 42.73187 36033 ft 454 kts 236°
2026-05-04 15:20 -14.63556 42.68714 36035 ft 453 kts 236°
2026-05-04 15:20 -14.67146 42.63349 36035 ft 453 kts 236°
2026-05-04 15:21 -14.70738 42.57993 36052 ft 454 kts 236°
2026-05-04 15:22 -14.76145 42.49950 36037 ft 454 kts 236°
2026-05-04 15:22 -14.81530 42.41922 36046 ft 453 kts 236°
2026-05-04 15:23 -14.85129 42.36551 36048 ft 453 kts 236°
2026-05-04 15:23 -14.88718 42.31174 36048 ft 453 kts 236°
2026-05-04 15:24 -14.95875 42.20469 36035 ft 453 kts 236°
2026-05-04 15:25 -14.99472 42.15087 36042 ft 453 kts 236°
2026-05-04 15:26 -15.04817 42.07071 36046 ft 453 kts 236°
2026-05-04 15:26 -15.10194 41.99003 36052 ft 453 kts 236°
2026-05-04 15:27 -15.15551 41.90957 36033 ft 453 kts 236°
2026-05-04 15:28 -15.20899 41.82901 36034 ft 454 kts 236°
2026-05-04 15:29 -15.26249 41.74804 36053 ft 453 kts 236°
2026-05-04 15:30 -15.38737 41.55978 36036 ft 453 kts 236°
2026-05-04 15:31 -15.44105 41.47876 36037 ft 453 kts 236°
2026-05-04 15:32 -15.52989 41.34445 36052 ft 453 kts 236°
2026-05-04 15:34 -15.61880 41.20959 36036 ft 453 kts 236°
2026-05-04 15:34 -15.67223 41.12848 36036 ft 453 kts 236°
2026-05-04 15:35 -15.72545 41.04765 36048 ft 453 kts 236°
2026-05-04 15:36 -15.77861 40.96667 36045 ft 453 kts 236°
2026-05-04 15:36 -15.81433 40.91261 36049 ft 454 kts 236°
2026-05-04 15:37 -15.85008 40.85849 36049 ft 454 kts 236°
2026-05-04 15:37 -15.88544 40.80469 36050 ft 454 kts 236°
2026-05-04 15:38 -15.92101 40.75039 36052 ft 453 kts 237°
2026-05-04 15:38 -15.95643 40.69614 36051 ft 454 kts 237°
2026-05-04 15:39 -15.99196 40.64187 36055 ft 453 kts 237°
2026-05-04 15:40 -16.04502 40.56067 36069 ft 453 kts 237°
2026-05-04 15:40 -16.08032 40.50662 36076 ft 452 kts 237°
2026-05-04 15:41 -16.11551 40.45273 36078 ft 452 kts 237°
2026-05-04 15:41 -16.15088 40.39863 36078 ft 452 kts 237°
2026-05-04 15:42 -16.18628 40.34447 36078 ft 452 kts 237°
2026-05-04 15:42 -16.22151 40.29030 36077 ft 452 kts 237°
2026-05-04 15:43 -16.25661 40.23639 36076 ft 452 kts 237°
2026-05-04 15:43 -16.29178 40.18216 36074 ft 452 kts 237°
2026-05-04 15:44 -16.32706 40.12783 36073 ft 452 kts 237°
2026-05-04 15:44 -16.36238 40.07358 36074 ft 452 kts 237°
2026-05-04 15:45 -16.39738 40.01963 36074 ft 452 kts 237°
2026-05-04 15:45 -16.43258 39.96527 36076 ft 452 kts 237°
2026-05-04 15:46 -16.46779 39.91090 36079 ft 452 kts 237°
2026-05-04 15:46 -16.50299 39.85660 36078 ft 452 kts 237°
2026-05-04 15:47 -16.53803 39.80262 36077 ft 452 kts 237°
2026-05-04 15:47 -16.57323 39.74815 36077 ft 452 kts 237°
2026-05-04 15:48 -16.60833 39.69367 36076 ft 452 kts 237°
2026-05-04 15:48 -16.66074 39.61239 36079 ft 451 kts 237°
2026-05-04 15:49 -16.69584 39.55804 36078 ft 451 kts 237°
2026-05-04 15:49 -16.73086 39.50366 36079 ft 451 kts 237°
2026-05-04 15:50 -16.76543 39.44947 36079 ft 450 kts 238°
2026-05-04 15:50 -16.80007 39.39505 36079 ft 450 kts 237°
2026-05-04 15:51 -16.83483 39.34055 36078 ft 450 kts 237°
2026-05-04 15:51 -16.86953 39.28606 36077 ft 450 kts 238°
2026-05-04 15:52 -16.90388 39.23195 36078 ft 449 kts 238°
2026-05-04 15:52 -16.93849 39.17745 36087 ft 449 kts 238°
2026-05-04 15:53 -16.97304 39.12302 36090 ft 449 kts 238°
2026-05-04 15:53 -17.00757 39.06862 36089 ft 449 kts 238°
2026-05-04 15:54 -17.04180 39.01463 36085 ft 448 kts 238°
2026-05-04 15:54 -17.07636 38.96017 36085 ft 448 kts 238°
2026-05-04 15:55 -17.11076 38.90578 36083 ft 448 kts 238°
2026-05-04 15:55 -17.14519 38.85133 36083 ft 448 kts 238°
2026-05-04 15:56 -17.17933 38.79729 36084 ft 448 kts 238°
2026-05-04 15:56 -17.21374 38.74288 36086 ft 448 kts 238°
2026-05-04 15:57 -17.24816 38.68841 36085 ft 448 kts 238°
2026-05-04 15:57 -17.28225 38.63432 36085 ft 448 kts 238°
2026-05-04 15:58 -17.31667 38.57986 36084 ft 448 kts 238°
2026-05-04 15:58 -17.35139 38.52578 36082 ft 448 kts 237°
2026-05-04 15:59 -17.38620 38.47165 36082 ft 447 kts 237°
2026-05-04 15:59 -17.42065 38.41780 36082 ft 447 kts 238°
2026-05-04 16:00 -17.45525 38.36348 36085 ft 447 kts 238°
2026-05-04 16:00 -17.48956 38.30950 36084 ft 447 kts 238°
2026-05-04 16:01 -17.52406 38.25522 36082 ft 447 kts 238°
2026-05-04 16:01 -17.55856 38.20096 36083 ft 447 kts 238°
2026-05-04 16:02 -17.59284 38.14673 36079 ft 446 kts 238°
2026-05-04 16:03 -17.64427 38.06566 36075 ft 446 kts 238°
2026-05-04 16:03 -17.67878 38.01142 36073 ft 446 kts 238°
2026-05-04 16:04 -17.71317 37.95730 36074 ft 446 kts 238°
2026-05-04 16:04 -17.76460 37.87603 36073 ft 445 kts 238°
2026-05-04 16:05 -17.79871 37.82211 36073 ft 445 kts 238°
2026-05-04 16:06 -17.85105 37.74151 36071 ft 447 kts 231°
2026-05-04 16:06 -17.91672 37.68866 36070 ft 452 kts 211°
2026-05-04 16:07 -17.95351 37.66718 36059 ft 452 kts 211°
2026-05-04 16:08 -18.05381 37.60807 36056 ft 452 kts 211°
2026-05-04 16:09 -18.19095 37.52708 36060 ft 452 kts 212°
2026-05-04 16:10 -18.30039 37.46242 36069 ft 452 kts 211°
2026-05-04 16:11 -18.41014 37.39769 36066 ft 451 kts 212°
2026-05-04 16:12 -18.57414 37.30064 36071 ft 450 kts 211°
2026-05-04 16:13 -18.68362 37.23718 36068 ft 450 kts 211°
2026-05-04 16:14 -18.79325 37.17337 36075 ft 449 kts 211°
2026-05-04 16:16 -18.92957 37.09383 36069 ft 448 kts 212°
2026-05-04 16:17 -19.06576 37.01495 36068 ft 447 kts 211°
2026-05-04 16:18 -19.17496 36.95179 36065 ft 447 kts 212°
2026-05-04 16:19 -19.31077 36.87185 36063 ft 446 kts 212°
2026-05-04 16:20 -19.44613 36.79229 36069 ft 446 kts 212°
2026-05-04 16:22 -19.58142 36.71273 36079 ft 445 kts 212°
2026-05-04 16:23 -19.74408 36.61785 36079 ft 444 kts 212°
2026-05-04 16:25 -19.90622 36.52301 36070 ft 444 kts 212°
2026-05-04 16:26 -20.09560 36.41194 36066 ft 444 kts 212°
2026-05-04 16:28 -20.23030 36.33263 36061 ft 443 kts 212°
2026-05-04 16:29 -20.41923 36.22128 36062 ft 442 kts 212°
2026-05-04 16:31 -20.55312 36.14097 36060 ft 442 kts 212°
2026-05-04 16:32 -20.71347 36.04485 36062 ft 441 kts 213°
2026-05-04 16:33 -20.82038 35.98058 36065 ft 440 kts 213°
2026-05-04 16:34 -20.90012 35.93251 36058 ft 440 kts 213°
2026-05-04 16:35 -21.05995 35.83624 36061 ft 439 kts 213°
2026-05-04 16:36 -21.13990 35.78795 36063 ft 439 kts 213°
2026-05-04 16:37 -21.21951 35.73973 36071 ft 438 kts 213°
2026-05-04 16:38 -21.32546 35.67564 36075 ft 437 kts 213°
2026-05-04 16:39 -21.45828 35.59658 36074 ft 437 kts 212°
2026-05-04 16:40 -21.56522 35.53506 36072 ft 436 kts 212°
2026-05-04 16:41 -21.69866 35.45735 36069 ft 436 kts 212°
2026-05-04 16:43 -21.83169 35.37973 36069 ft 435 kts 212°
2026-05-04 16:43 -21.91164 35.33304 36068 ft 435 kts 212°
2026-05-04 16:44 -22.00827 35.25866 36066 ft 425 kts 231°
2026-05-04 16:45 -22.04803 35.21166 36067 ft 426 kts 230°
2026-05-04 16:46 -22.14806 35.09343 36068 ft 426 kts 230°
2026-05-04 16:47 -22.22776 34.99885 36067 ft 427 kts 230°
2026-05-04 16:48 -22.30768 34.90368 36062 ft 427 kts 230°
2026-05-04 16:49 -22.38737 34.80876 36058 ft 427 kts 230°
2026-05-04 16:50 -22.46785 34.71428 36063 ft 428 kts 229°
2026-05-04 16:51 -22.52934 34.64466 36056 ft 428 kts 229°
2026-05-04 16:52 -22.61146 34.55088 36065 ft 429 kts 229°
2026-05-04 16:53 -22.67294 34.48044 36056 ft 428 kts 229°
2026-05-04 16:54 -22.75467 34.38656 36061 ft 429 kts 229°
2026-05-04 16:55 -22.87048 34.25344 36060 ft 429 kts 229°
2026-05-04 16:56 -22.97289 34.13541 36056 ft 429 kts 229°
2026-05-04 16:57 -23.03433 34.06446 36063 ft 429 kts 229°
2026-05-04 16:58 -23.11578 33.97017 36062 ft 429 kts 229°
2026-05-04 17:00 -23.23838 33.82788 36057 ft 431 kts 229°
2026-05-04 17:01 -23.34082 33.70882 36058 ft 431 kts 229°
2026-05-04 17:02 -23.42252 33.61362 36052 ft 431 kts 229°
2026-05-04 17:03 -23.48371 33.54221 36053 ft 431 kts 229°
2026-05-04 17:03 -23.54505 33.47045 36053 ft 431 kts 229°
2026-05-04 17:04 -23.62676 33.37474 36052 ft 431 kts 229°
2026-05-04 17:05 -23.70819 33.27926 36042 ft 431 kts 229°
2026-05-04 17:06 -23.76941 33.20725 36038 ft 431 kts 229°
2026-05-04 17:07 -23.82377 33.14326 36048 ft 431 kts 229°
2026-05-04 17:07 -23.87122 33.08732 36036 ft 431 kts 229°
2026-05-04 17:08 -23.93242 33.01505 36032 ft 431 kts 229°
2026-05-04 17:09 -23.97296 32.96726 36027 ft 431 kts 229°
2026-05-04 17:09 -24.01374 32.91899 36027 ft 431 kts 229°
2026-05-04 17:10 -24.11533 32.79857 36060 ft 431 kts 230°
2026-05-04 17:11 -24.15608 32.75024 36070 ft 431 kts 230°
2026-05-04 17:12 -24.21692 32.67779 36097 ft 431 kts 230°
2026-05-04 17:13 -24.31868 32.55672 36115 ft 431 kts 230°
2026-05-04 17:14 -24.39979 32.45980 36100 ft 432 kts 230°
2026-05-04 17:15 -24.46065 32.38672 36084 ft 432 kts 230°
2026-05-04 17:16 -24.54117 32.28865 36077 ft 430 kts 233°
2026-05-04 17:17 -24.61337 32.18429 36075 ft 429 kts 235°
2026-05-04 17:18 -24.68603 32.08037 36074 ft 429 kts 234°
2026-05-04 17:19 -24.75943 31.97653 36084 ft 429 kts 234°
2026-05-04 17:20 -24.83384 31.87395 36089 ft 430 kts 234°
2026-05-04 17:20 -24.88980 31.79683 36093 ft 429 kts 234°
2026-05-04 17:21 -24.96407 31.69374 36100 ft 428 kts 234°
2026-05-04 17:22 -25.00084 31.64260 36102 ft 428 kts 234°
2026-05-04 17:23 -25.07465 31.53982 36105 ft 427 kts 234°
2026-05-04 17:24 -25.13012 31.46266 36109 ft 427 kts 234°
2026-05-04 17:25 -25.20378 31.35963 36117 ft 427 kts 234°
2026-05-04 17:26 -25.27711 31.25687 36117 ft 426 kts 235°
2026-05-04 17:27 -25.36902 31.12796 36124 ft 427 kts 233°
2026-05-04 17:27 -25.41368 31.08410 36124 ft 433 kts 221°
2026-05-04 17:28 -25.46166 31.04443 36120 ft 433 kts 221°
2026-05-04 17:29 -25.60615 30.92387 36119 ft 433 kts 221°
2026-05-04 17:31 -25.72628 30.82374 36118 ft 433 kts 221°
2026-05-04 17:32 -25.84671 30.72317 36113 ft 433 kts 221°
2026-05-04 17:33 -25.94262 30.64281 36117 ft 432 kts 222°
2026-05-04 17:34 -26.03835 30.56228 36123 ft 432 kts 222°
2026-05-04 17:35 -26.15789 30.46145 36137 ft 431 kts 223°
2026-05-04 17:36 -26.20575 30.42095 36133 ft 431 kts 223°
2026-05-04 17:36 -26.25337 30.38054 36135 ft 431 kts 223°
2026-05-04 17:37 -26.30111 30.34007 36126 ft 431 kts 223°
2026-05-04 17:37 -26.34899 30.29958 36127 ft 431 kts 223°
2026-05-04 17:38 -26.39677 30.25906 36127 ft 431 kts 223°
2026-05-04 17:38 -26.44430 30.21863 36125 ft 431 kts 223°
2026-05-04 17:39 -26.51600 30.15764 36133 ft 431 kts 223°
2026-05-04 17:39 -26.56377 30.11692 36144 ft 431 kts 223°
2026-05-04 17:40 -26.61125 30.07644 36145 ft 431 kts 223°
2026-05-04 17:40 -26.65891 30.03565 36145 ft 431 kts 223°
2026-05-04 17:41 -26.70660 29.99488 36144 ft 431 kts 223°
2026-05-04 17:41 -26.74632 29.96086 36145 ft 431 kts 223°
2026-05-04 17:42 -26.80183 29.91333 36145 ft 432 kts 223°
2026-05-04 17:42 -26.84953 29.87247 36148 ft 432 kts 223°
2026-05-04 17:43 -26.88948 29.83816 36149 ft 432 kts 224°
2026-05-04 17:43 -26.93681 29.79734 36151 ft 432 kts 224°
2026-05-04 17:44 -26.98452 29.75625 36152 ft 432 kts 224°
2026-05-04 17:44 -27.03237 29.71514 36151 ft 432 kts 224°
2026-05-04 17:45 -27.07993 29.67420 36153 ft 433 kts 224°
2026-05-04 17:45 -27.12765 29.63299 36157 ft 433 kts 224°
2026-05-04 17:46 -27.17549 29.59168 36159 ft 433 kts 224°
2026-05-04 17:46 -27.22326 29.55037 36160 ft 433 kts 224°
2026-05-04 17:47 -27.27070 29.50927 36161 ft 433 kts 224°
2026-05-04 17:47 -27.31836 29.46783 36160 ft 432 kts 224°
2026-05-04 17:48 -27.36603 29.42632 36158 ft 432 kts 224°
2026-05-04 17:48 -27.41347 29.38509 36159 ft 432 kts 224°
2026-05-04 17:49 -27.46121 29.34351 36159 ft 432 kts 224°
2026-05-04 17:49 -27.50876 29.30205 36155 ft 432 kts 224°
2026-05-04 17:50 -27.55610 29.26078 36154 ft 432 kts 224°
2026-05-04 17:50 -27.60366 29.21936 36150 ft 432 kts 224°
2026-05-04 17:51 -27.65121 29.17781 36149 ft 432 kts 224°
2026-05-04 17:51 -27.69853 29.13632 36148 ft 432 kts 224°
2026-05-04 17:52 -27.74598 29.09470 36147 ft 432 kts 224°
2026-05-04 17:52 -27.79354 29.05300 36150 ft 432 kts 224°
2026-05-04 17:53 -27.84086 29.01175 36154 ft 432 kts 224°
2026-05-04 17:53 -27.88854 28.97013 36153 ft 432 kts 224°
2026-05-04 17:54 -27.93603 28.92848 36154 ft 432 kts 225°
2026-05-04 17:54 -27.97769 28.88129 36153 ft 417 kts 240°
2026-05-04 17:55 -28.00537 28.82501 36151 ft 410 kts 249°
2026-05-04 17:55 -28.03111 28.76735 36153 ft 410 kts 249°
2026-05-04 17:56 -28.05697 28.70988 36154 ft 409 kts 249°
2026-05-04 17:56 -28.08267 28.65253 36156 ft 408 kts 249°
2026-05-04 17:57 -28.10815 28.59519 36153 ft 407 kts 249°
2026-05-04 17:57 -28.13343 28.53821 36154 ft 407 kts 249°
2026-05-04 17:58 -28.15889 28.48078 36156 ft 407 kts 249°
2026-05-04 17:58 -28.18416 28.42331 36155 ft 407 kts 249°
2026-05-04 17:59 -28.20953 28.36589 36157 ft 407 kts 249°
2026-05-04 18:00 -28.24746 28.28015 36159 ft 407 kts 249°
2026-05-04 18:00 -28.27284 28.22268 36165 ft 407 kts 249°
2026-05-04 18:01 -28.29812 28.16568 36169 ft 407 kts 249°
2026-05-04 18:01 -28.32335 28.10822 36173 ft 406 kts 249°
2026-05-04 18:02 -28.36118 28.02182 36187 ft 406 kts 249°
2026-05-04 18:02 -28.38628 27.96491 36195 ft 405 kts 249°
2026-05-04 18:03 -28.41148 27.90737 36201 ft 405 kts 249°
2026-05-04 18:03 -28.43636 27.85036 36198 ft 405 kts 249°
2026-05-04 18:04 -28.46136 27.79298 36197 ft 405 kts 250°
2026-05-04 18:05 -28.49887 27.70675 36197 ft 405 kts 250°
2026-05-04 18:05 -28.52390 27.64934 36197 ft 404 kts 250°
2026-05-04 18:06 -28.56114 27.56366 36197 ft 404 kts 251°
2026-05-04 18:06 -28.58606 27.50619 36197 ft 404 kts 251°
2026-05-04 18:07 -28.61096 27.44874 36186 ft 403 kts 251°
2026-05-04 18:07 -28.63563 27.39176 36184 ft 403 kts 251°
2026-05-04 18:08 -28.66037 27.33438 36180 ft 403 kts 251°
2026-05-04 18:08 -28.68511 27.27689 36181 ft 403 kts 251°
2026-05-04 18:09 -28.73433 27.16247 36178 ft 403 kts 252°
2026-05-04 18:10 -28.75891 27.10509 36179 ft 402 kts 252°
2026-05-04 18:10 -28.78345 27.04772 36176 ft 402 kts 252°
2026-05-04 18:11 -28.80775 26.99029 36172 ft 400 kts 254°
2026-05-04 18:11 -28.82906 26.93196 36168 ft 397 kts 256°
2026-05-04 18:12 -28.84874 26.87370 36163 ft 396 kts 256°
2026-05-04 18:12 -28.86893 26.81515 36160 ft 397 kts 255°
2026-05-04 18:13 -28.89432 26.75832 36153 ft 402 kts 251°
2026-05-04 18:14 -28.93310 26.67372 36148 ft 402 kts 251°
2026-05-04 18:14 -28.95870 26.61698 36135 ft 401 kts 251°
2026-05-04 18:15 -29.00974 26.50359 36134 ft 401 kts 252°
2026-05-04 18:16 -29.03519 26.44714 36125 ft 401 kts 252°
2026-05-04 18:16 -29.06065 26.39044 36131 ft 401 kts 252°
2026-05-04 18:17 -29.09986 26.30566 36124 ft 407 kts 246°
2026-05-04 18:17 -29.13729 26.25525 36118 ft 419 kts 238°
2026-05-04 18:18 -29.15701 26.23073 36111 ft 419 kts 238°
2026-05-04 18:18 -29.19638 26.18146 36108 ft 419 kts 238°
2026-05-04 18:19 -29.25521 26.10780 36107 ft 418 kts 238°
2026-05-04 18:19 -29.29449 26.05869 36108 ft 418 kts 238°
2026-05-04 18:20 -29.33385 26.00951 36113 ft 418 kts 238°
2026-05-04 18:20 -29.37324 25.96028 36115 ft 418 kts 239°
2026-05-04 18:21 -29.41232 25.91113 36116 ft 419 kts 239°
2026-05-04 18:21 -29.45165 25.86163 36120 ft 419 kts 239°
2026-05-04 18:22 -29.49087 25.81232 36125 ft 420 kts 239°
2026-05-04 18:22 -29.53021 25.76280 36124 ft 419 kts 239°
2026-05-04 18:23 -29.56931 25.71359 36112 ft 419 kts 239°
2026-05-04 18:23 -29.60848 25.66409 36115 ft 419 kts 239°
2026-05-04 18:24 -29.64776 25.61438 36112 ft 418 kts 239°
2026-05-04 18:24 -29.68667 25.56508 36102 ft 419 kts 239°
2026-05-04 18:25 -29.72591 25.51533 36099 ft 419 kts 239°
2026-05-04 18:25 -29.76506 25.46559 36093 ft 419 kts 239°
2026-05-04 18:26 -29.80429 25.41579 36092 ft 419 kts 239°
2026-05-04 18:26 -29.84323 25.36630 36092 ft 420 kts 239°
2026-05-04 18:27 -29.88242 25.31635 36091 ft 420 kts 240°
2026-05-04 18:27 -29.92161 25.26635 36089 ft 420 kts 240°
2026-05-04 18:28 -29.95423 25.22474 36084 ft 420 kts 240°
2026-05-04 18:28 -29.99983 25.16644 36081 ft 421 kts 240°
2026-05-04 18:29 -30.03243 25.12471 36075 ft 421 kts 240°
2026-05-04 18:29 -30.07821 25.06603 36072 ft 422 kts 240°
2026-05-04 18:30 -30.13093 24.99845 36069 ft 423 kts 240°
2026-05-04 18:31 -30.17026 24.94819 36065 ft 424 kts 240°
2026-05-04 18:31 -30.20989 24.89738 36060 ft 425 kts 241°
2026-05-04 18:32 -30.24950 24.84626 36060 ft 426 kts 241°
2026-05-04 18:32 -30.28892 24.79533 36060 ft 427 kts 241°
2026-05-04 18:33 -30.32854 24.74406 36059 ft 427 kts 241°
2026-05-04 18:33 -30.36821 24.69268 36054 ft 428 kts 241°
2026-05-04 18:34 -30.40796 24.64142 36054 ft 429 kts 241°
2026-05-04 18:34 -30.44797 24.58999 36045 ft 430 kts 241°
2026-05-04 18:35 -30.48814 24.53835 36035 ft 430 kts 241°
2026-05-04 18:35 -30.52816 24.48656 36033 ft 431 kts 241°
2026-05-04 18:36 -30.56824 24.43481 36051 ft 431 kts 241°
2026-05-04 18:36 -30.60822 24.38319 36048 ft 431 kts 241°
2026-05-04 18:37 -30.64827 24.33123 36043 ft 431 kts 241°
2026-05-04 18:37 -30.68805 24.27952 36047 ft 431 kts 241°
2026-05-04 18:38 -30.72803 24.22746 36049 ft 431 kts 241°
2026-05-04 18:38 -30.76812 24.17529 36032 ft 431 kts 241°
2026-05-04 18:39 -30.80784 24.12353 36030 ft 432 kts 242°
2026-05-04 18:39 -30.84790 24.07126 36032 ft 432 kts 242°
2026-05-04 18:40 -30.88800 24.01899 36034 ft 432 kts 242°
2026-05-04 18:40 -30.92800 23.96667 36032 ft 432 kts 242°
2026-05-04 18:41 -30.96762 23.91456 36030 ft 432 kts 242°
2026-05-04 18:41 -31.00755 23.86202 36033 ft 433 kts 242°
2026-05-04 18:42 -31.04761 23.80949 36032 ft 432 kts 242°
2026-05-04 18:42 -31.08735 23.75720 36028 ft 433 kts 242°
2026-05-04 18:43 -31.12723 23.70459 36027 ft 432 kts 242°
2026-05-04 18:43 -31.16723 23.65179 36021 ft 433 kts 242°
2026-05-04 18:44 -31.20718 23.59900 36019 ft 433 kts 242°
2026-05-04 18:44 -31.24688 23.54655 36020 ft 434 kts 242°
2026-05-04 18:45 -31.28688 23.49365 36020 ft 434 kts 242°
2026-05-04 18:45 -31.32680 23.44079 36020 ft 433 kts 242°
2026-05-04 18:46 -31.36669 23.38781 36020 ft 433 kts 242°
2026-05-04 18:46 -31.40628 23.33510 36020 ft 433 kts 242°
2026-05-04 18:47 -31.44621 23.28197 36022 ft 434 kts 242°
2026-05-04 18:47 -31.48608 23.22880 36023 ft 434 kts 242°
2026-05-04 18:48 -31.52582 23.17561 36023 ft 434 kts 243°
2026-05-04 18:48 -31.56541 23.12270 36020 ft 433 kts 242°
2026-05-04 18:49 -31.60514 23.06951 36009 ft 433 kts 243°
2026-05-04 18:49 -31.64490 23.01619 36010 ft 433 kts 243°
2026-05-04 18:50 -31.68428 22.96336 36010 ft 433 kts 242°
2026-05-04 18:50 -31.72404 22.90996 36010 ft 433 kts 243°
2026-05-04 18:51 -31.76370 22.85654 36011 ft 433 kts 243°
2026-05-04 18:51 -31.80326 22.80312 36011 ft 433 kts 243°
2026-05-04 18:52 -31.84274 22.74979 36011 ft 432 kts 242°
2026-05-04 18:52 -31.88231 22.69626 36006 ft 433 kts 243°
2026-05-04 18:53 -31.92151 22.64306 36007 ft 432 kts 243°
2026-05-04 18:53 -31.96098 22.58947 36006 ft 433 kts 242°
2026-05-04 18:54 -32.00052 22.53595 36009 ft 433 kts 242°
2026-05-04 18:54 -32.03996 22.48238 36009 ft 432 kts 243°
2026-05-04 18:55 -32.07906 22.42899 36004 ft 432 kts 243°
2026-05-04 18:55 -32.13801 22.34832 36006 ft 432 kts 243°
2026-05-04 18:56 -32.17724 22.29477 36002 ft 432 kts 243°
2026-05-04 18:56 -32.21633 22.24129 36011 ft 432 kts 243°
2026-05-04 18:57 -32.25554 22.18743 36011 ft 432 kts 243°
2026-05-04 18:57 -32.29472 22.13357 36011 ft 432 kts 243°
2026-05-04 18:58 -32.33371 22.07997 36016 ft 432 kts 243°
2026-05-04 18:58 -32.37292 22.02612 36015 ft 432 kts 243°
2026-05-04 18:59 -32.41224 21.97194 36017 ft 432 kts 243°
2026-05-04 18:59 -32.45131 21.91786 36017 ft 432 kts 243°
2026-05-04 19:00 -32.49015 21.86408 36019 ft 432 kts 243°
2026-05-04 19:00 -32.52928 21.80995 36017 ft 432 kts 243°
2026-05-04 19:01 -32.56840 21.75576 36016 ft 432 kts 243°
2026-05-04 19:01 -32.60739 21.70151 36016 ft 432 kts 243°
2026-05-04 19:02 -32.64646 21.64715 36017 ft 432 kts 243°
2026-05-04 19:02 -32.68521 21.59328 36018 ft 432 kts 243°
2026-05-04 19:03 -32.72415 21.53889 36017 ft 432 kts 243°
2026-05-04 19:03 -32.76312 21.48450 36021 ft 431 kts 243°
2026-05-04 19:04 -32.80202 21.43013 36021 ft 431 kts 243°
2026-05-04 19:04 -32.84085 21.37564 36019 ft 431 kts 243°
2026-05-04 19:05 -32.87933 21.32157 36017 ft 431 kts 243°
2026-05-04 19:05 -32.91810 21.26707 36020 ft 431 kts 243°
2026-05-04 19:06 -32.95684 21.21260 36020 ft 431 kts 243°
2026-05-04 19:06 -32.99537 21.15831 36017 ft 430 kts 243°
2026-05-04 19:07 -33.03397 21.10375 36016 ft 430 kts 243°
2026-05-04 19:07 -33.07257 21.04910 36016 ft 430 kts 243°
2026-05-04 19:08 -33.11107 20.99440 36014 ft 430 kts 243°
2026-05-04 19:08 -33.14969 20.93976 36013 ft 430 kts 243°
2026-05-04 19:09 -33.18802 20.88545 36006 ft 430 kts 243°
2026-05-04 19:09 -33.22658 20.83059 36012 ft 430 kts 243°
2026-05-04 19:10 -33.26501 20.77574 36008 ft 430 kts 243°
2026-05-04 19:10 -33.30335 20.72111 36011 ft 431 kts 243°
2026-05-04 19:11 -33.34151 20.66627 36011 ft 430 kts 243°
2026-05-04 19:11 -33.37985 20.61104 36015 ft 431 kts 243°
2026-05-04 19:12 -33.43751 20.52829 36018 ft 431 kts 243°
2026-05-04 19:13 -33.47580 20.47344 36015 ft 431 kts 243°
2026-05-04 19:13 -33.51422 20.41811 35890 ft 432 kts 243°
2026-05-04 19:13 -33.53344 20.39038 35644 ft 432 kts 243°
2026-05-04 19:14 -33.55264 20.36274 35273 ft 432 kts 243°
2026-05-04 19:14 -33.57205 20.33486 34430 ft 437 kts 243°
2026-05-04 19:14 -33.59212 20.30711 33568 ft 444 kts 242°
2026-05-04 19:14 -33.60585 20.28875 32959 ft 448 kts 241°
2026-05-04 19:15 -33.63427 20.25176 31935 ft 450 kts 240°
2026-05-04 19:15 -33.64839 20.23371 31597 ft 445 kts 240°
2026-05-04 19:15 -33.67065 20.20519 30966 ft 439 kts 240°
2026-05-04 19:15 -33.69128 20.17846 30385 ft 434 kts 240°
2026-05-04 19:16 -33.71151 20.15187 29791 ft 428 kts 241°
2026-05-04 19:16 -33.73139 20.12544 29201 ft 423 kts 241°
2026-05-04 19:16 -33.75093 20.09931 28635 ft 418 kts 241°
2026-05-04 19:16 -33.77029 20.07344 28070 ft 413 kts 241°
2026-05-04 19:17 -33.78941 20.04793 27507 ft 409 kts 241°
2026-05-04 19:17 -33.80837 20.02267 26964 ft 403 kts 241°
2026-05-04 19:17 -33.82686 19.99809 26412 ft 399 kts 241°
2026-05-04 19:17 -33.84538 19.97346 25899 ft 395 kts 241°
2026-05-04 19:18 -33.86369 19.94907 25376 ft 391 kts 241°
2026-05-04 19:18 -33.88181 19.92490 24886 ft 387 kts 241°
2026-05-04 19:18 -33.89975 19.90094 24405 ft 383 kts 241°
2026-05-04 19:18 -33.91751 19.87721 23946 ft 380 kts 241°
2026-05-04 19:19 -33.93513 19.85365 23490 ft 377 kts 241°
2026-05-04 19:19 -33.95267 19.83016 23034 ft 374 kts 240°
2026-05-04 19:19 -33.96888 19.80629 22585 ft 359 kts 248°
2026-05-04 19:19 -33.98110 19.78086 22142 ft 345 kts 255°
2026-05-04 19:20 -33.99202 19.75524 21715 ft 342 kts 255°
2026-05-04 19:20 -34.00275 19.73021 21275 ft 338 kts 255°
2026-05-04 19:20 -34.01348 19.70526 20819 ft 333 kts 253°
2026-05-04 19:20 -34.02407 19.68066 20413 ft 327 kts 254°
2026-05-04 19:21 -34.03440 19.65674 20263 ft 317 kts 255°
2026-05-04 19:21 -34.04442 19.63339 19983 ft 310 kts 255°
2026-05-04 19:21 -34.05558 19.61035 19684 ft 335 kts 246°
2026-05-04 19:21 -34.06991 19.58806 19425 ft 333 kts 243°
2026-05-04 19:22 -34.08425 19.56672 19273 ft 322 kts 243°
2026-05-04 19:22 -34.09832 19.54599 18957 ft 317 kts 243°
2026-05-04 19:22 -34.11221 19.52547 18603 ft 314 kts 243°
2026-05-04 19:22 -34.12595 19.50506 18208 ft 313 kts 243°
2026-05-04 19:23 -34.13884 19.48461 17824 ft 301 kts 252°
2026-05-04 19:23 -34.14656 19.46200 17440 ft 287 kts 262°
2026-05-04 19:23 -34.15257 19.43906 17043 ft 286 kts 263°
2026-05-04 19:23 -34.15831 19.41614 16673 ft 284 kts 263°
2026-05-04 19:24 -34.16380 19.39333 16311 ft 283 kts 263°
2026-05-04 19:24 -34.16922 19.37050 15920 ft 282 kts 263°
2026-05-04 19:24 -34.17446 19.34769 15533 ft 281 kts 263°
2026-05-04 19:24 -34.17950 19.32500 15164 ft 280 kts 263°
2026-05-04 19:25 -34.18446 19.30226 14805 ft 278 kts 263°
2026-05-04 19:25 -34.18927 19.27959 14447 ft 278 kts 263°
2026-05-04 19:25 -34.19389 19.25730 14073 ft 277 kts 263°
2026-05-04 19:25 -34.19839 19.23471 13716 ft 276 kts 263°
2026-05-04 19:26 -34.20279 19.21217 13368 ft 275 kts 263°
2026-05-04 19:26 -34.20710 19.18961 12972 ft 275 kts 263°
2026-05-04 19:26 -34.21122 19.16715 12633 ft 273 kts 263°
2026-05-04 19:26 -34.21521 19.14479 12281 ft 272 kts 263°
2026-05-04 19:27 -34.21903 19.12237 11921 ft 272 kts 263°
2026-05-04 19:27 -34.22273 19.10002 11583 ft 271 kts 263°
2026-05-04 19:27 -34.22638 19.07761 11234 ft 271 kts 261°
2026-05-04 19:27 -34.23114 19.05552 10769 ft 271 kts 258°
2026-05-04 19:28 -34.23607 19.03387 10233 ft 271 kts 258°
2026-05-04 19:28 -34.24089 19.01202 9609 ft 270 kts 258°
2026-05-04 19:28 -34.24554 18.99006 8990 ft 271 kts 258°
2026-05-04 19:28 -34.25003 18.96784 8618 ft 272 kts 258°
2026-05-04 19:29 -34.25440 18.94565 8273 ft 271 kts 258°
2026-05-04 19:29 -34.25872 18.92352 7933 ft 270 kts 258°
2026-05-04 19:29 -34.26300 18.90146 7607 ft 267 kts 258°
2026-05-04 19:29 -34.26718 18.88004 7473 ft 257 kts 258°
2026-05-04 19:30 -34.27120 18.85936 7353 ft 249 kts 258°
2026-05-04 19:30 -34.27508 18.83917 7229 ft 243 kts 258°
2026-05-04 19:30 -34.27887 18.81955 7093 ft 233 kts 258°
2026-05-04 19:30 -34.28246 18.80115 6901 ft 219 kts 258°
2026-05-04 19:31 -34.28307 18.78330 6512 ft 212 kts 287°
2026-05-04 19:31 -34.27587 18.76855 6341 ft 199 kts 309°
2026-05-04 19:31 -34.26672 18.75663 6063 ft 194 kts 313°
2026-05-04 19:31 -34.25729 18.74506 5741 ft 191 kts 313°
2026-05-04 19:32 -34.24794 18.73368 5352 ft 191 kts 313°
2026-05-04 19:32 -34.23869 18.72238 5096 ft 184 kts 313°
2026-05-04 19:32 -34.22978 18.71147 4829 ft 182 kts 313°
2026-05-04 19:32 -34.22096 18.70065 4567 ft 177 kts 313°
2026-05-04 19:33 -34.21240 18.69011 4414 ft 175 kts 314°
2026-05-04 19:33 -34.20378 18.67992 4261 ft 176 kts 322°
2026-05-04 19:33 -34.19267 18.67393 4193 ft 178 kts 343°
2026-05-04 19:33 -34.18080 18.67020 3995 ft 173 kts 344°
2026-05-04 19:34 -34.16932 18.66659 3792 ft 168 kts 344°
2026-05-04 19:34 -34.15805 18.66302 3575 ft 166 kts 343°
2026-05-04 19:34 -34.14690 18.65948 3362 ft 165 kts 344°
2026-05-04 19:34 -34.13580 18.65595 3139 ft 164 kts 344°
2026-05-04 19:35 -34.12470 18.65241 2922 ft 165 kts 344°
2026-05-04 19:35 -34.11365 18.64890 2703 ft 164 kts 344°
2026-05-04 19:35 -34.10263 18.64539 2485 ft 163 kts 344°
2026-05-04 19:35 -34.09167 18.64191 2269 ft 162 kts 345°
2026-05-04 19:36 -34.08076 18.63844 2060 ft 161 kts 345°
2026-05-04 19:36 -34.06994 18.63500 1860 ft 154 kts 345°
2026-05-04 19:36 -34.06004 18.63186 1642 ft 142 kts 345°
2026-05-04 19:36 -34.05064 18.62886 1463 ft 137 kts 345°
2026-05-04 19:37 -34.04158 18.62595 1276 ft 135 kts 345°
2026-05-04 19:37 -34.03247 18.62310 1085 ft 134 kts 345°
2026-05-04 19:37 -34.02341 18.62030 917 ft 134 kts 345°
2026-05-04 19:37 -34.01439 18.61734 747 ft 134 kts 345°
2026-05-04 19:38 -34.00538 18.61450 555 ft 134 kts 345°
2026-05-04 19:38 -33.99636 18.61169 367 ft 134 kts 345°
2026-05-04 19:38 -33.98735 18.60880 209 ft 134 kts 345°
2026-05-04 19:38 -33.97904 18.60614 154 ft 98 kts 345°
2026-05-04 19:39 -33.97444 18.60468 152 ft 55 kts 345°
2026-05-04 19:39 -33.97214 18.60388 154 ft 25 kts 341°
2026-05-04 19:39 -33.97122 18.60295 155 ft 15 kts 290°
2026-05-04 19:39 -33.97093 18.60185 154 ft 12 kts 287°
2026-05-04 19:40 -33.97079 18.60131 154 ft 8 kts 287°
2026-05-04 19:40 -33.97061 18.60060 154 ft 10 kts 287°
2026-05-04 19:40 -33.97062 18.59974 154 ft 9 kts 232°
2026-05-04 19:40 -33.97124 18.59964 154 ft 6 kts 170°
2026-05-04 19:41 -33.97158 18.59974 154 ft 5 kts 166°
2026-05-04 19:41 -33.97198 18.59984 154 ft 7 kts 180°
2026-05-04 19:41 -33.97214 18.59961 154 ft 4 kts 257°
2026-05-04 19:41 -33.97222 18.59925 154 ft 5 kts 255°
2026-05-04 19:42 -33.97226 18.59907 154 ft 2 kts 255°
2026-05-04 19:42 -33.97226 18.59904 154 ft 0 kts 255°